Lid_Strength_Index
13 16 17 14 14 14 17 18 18 16 14 16 15 14 13 11 11 12 11 10 10 9 8 8 9 10 10 11 11 11 12 11 11 12 13 13 13 13 14 14 14 14 15 15
15 17 13 14 14 15 15 16 16 14 13 16 16 16 14 13 12 11 10 10 10 10 9 9 10 11 10 11 11 11 11 11 11 11 11 12 12 14 13 14 15 15 15 16
15 14 13 14 15 16 16 17 16 16 15 16 16 16 15 14 12 11 10 10 9 10 10 9 9 12 11 11 11 11 11 11 11 11 12 15 15 16 17 16 16 16 16 16
16 13 14 15 16 15 17 15 15 15 18 18 17 20 18 15 15 14 12 11 11 10 10 10 9 12 12 11 10 10 11 12 12 12 13 13 14 14 15 14 15 16 16 16
16 16 16 16 14 14 15 14 15 17 18 18 18 20 18 17 17 14 12 11 11 10 10 10 10 11 11 11 11 11 12 12 12 12 12 13 13 13 16 17 17 16 16 16
14 14 14 14 14 14 14 16 17 18 19 21 18 18 17 18 16 15 13 12 11 11 11 11 11 12 11 13 13 13 13 13 12 13 13 13 14 16 17 17 16 16 16 17
17 16 14 14 16 15 15 17 20 22 23 21 18 18 16 15 15 14 13 12 11 11 12 12 13 13 12 14 15 14 14 14 14 14 13 14 14 15 15 16 15 16 17 17
19 17 16 14 14 15 16 16 19 23 21 19 19 20 16 13 13 12 13 12 12 12 11 13 12 12 13 14 14 14 15 15 15 14 14 14 14 14 14 15 15 16 16 16
18 18 15 15 14 13 17 17 14 17 19 20 19 16 13 11 11 14 13 13 13 13 13 13 13 13 14 14 14 14 14 14 14 14 14 14 14 14 14 15 15 15 16 16
14 16 16 16 16 16 15 14 18 18 21 22 18 17 17 13 12 12 13 13 13 13 13 13 13 13 13 15 15 15 14 13 13 13 13 13 13 14 14 15 16 16 16 16
13 14 15 15 16 14 16 16 16 15 15 18 19 16 13 11 10 11 12 13 13 13 13 12 12 12 12 14 15 15 14 14 14 14 13 13 14 14 14 15 15 15 16 17
11 12 16 14 12 13 13 12 12 16 16 15 16 16 10 9 9 9 11 11 12 11 12 12 11 11 11 12 13 14 14 14 14 14 13 14 14 15 15 15 16 16 17 17
10 13 18 16 13 13 13 12 12 12 12 16 18 16 8 9 8 8 10 11 12 11 11 11 11 10 11 11 13 14 13 13 13 15 14 15 15 16 15 15 16 17 17 17
8 12 15 18 15 12 14 13 12 13 16 16 15 14 11 9 9 8 8 10 9 10 10 10 10 11 11 11 11 12 12 13 14 14 15 15 15 15 15 15 16 17 17 18
10 15 13 13 13 13 13 14 13 14 13 16 14 14 11 9 9 8 7 8 9 11 12 13 13 13 12 12 12 12 13 14 14 14 15 15 15 15 15 16 17 17 17 18
10 15 14 16 14 14 14 13 13 13 13 14 13 13 10 9 11 13 11 11 12 12 12 13 13 13 13 13 12 12 12 14 14 14 15 15 16 16 16 17 17 18 18 18
15 17 17 18 16 16 18 15 14 13 11 13 15 15 15 14 15 14 13 13 13 12 12 13 13 13 13 12 13 13 14 13 15 14 14 15 16 16 17 18 18 18 18 18
15 17 19 19 18 22 16 12 12 13 16 16 16 16 14 14 14 12 13 14 13 12 12 12 12 13 13 12 13 14 15 15 15 15 15 16 16 17 18 18 18 18 18 19
12 13 16 18 22 16 14 14 16 16 16 14 15 14 13 14 14 14 13 13 14 13 13 13 13 13 13 12 13 15 16 17 17 17 17 17 17 17 18 19 19 19 19 19
14 13 16 19 21 23 19 14 12 13 19 14 14 14 14 14 19 17 14 14 14 14 13 13 13 12 12 12 14 15 15 16 17 17 17 17 17 18 18 18 18 18 18 18
25 27 26 26 26 21 16 14 13 23 20 13 12 13 14 16 15 13 13 14 14 15 14 13 13 14 13 13 14 14 14 15 16 17 18 19 18 18 17 18 18 18 19 19
22 27 27 29 31 26 13 14 17 15 13 12 12 12 13 14 14 14 14 14 14 14 15 15 15 15 14 13 13 13 14 14 19 19 20 20 20 19 18 19 19 19 19 19
21 17 21 20 21 14 12 12 11 10 12 11 13 12 13 14 15 15 16 15 14 14 14 15 16 16 15 14 13 14 13 14 16 18 18 18 18 19 18 19 19 20 20 20
15 13 17 18 14 12 11 10 10 9 10 11 11 12 13 15 15 14 14 15 15 15 16 15 16 17 18 16 15 16 15 13 15 15 16 18 19 19 18 18 18 19 20 19
14 14 16 14 12 10 10 10 9 9 10 11 12 13 14 14 14 14 15 15 15 16 16 16 17 17 18 17 17 17 16 16 15 15 15 17 18 19 19 19 18 18 18 18
11 12 13 14 10 9 10 8 9 11 11 13 14 14 13 13 14 14 15 15 15 16 16 18 18 18 19 20 20 20 20 20 20 18 16 17 18 19 18 19 19 16 15 15